Regional Weather Roundup
Issued by NWS

Home | Current Version | Previous Version | Text Only | Print | Product List | Glossary Off
Versions: 1 2 3 4 5 6 7 8 9 10 11 12 13 14 15 16 17 18 19 20 21 22 23 24 25 26 27 28 29 30 31 32 33 34 35 36 37 38 39 40 41 42 43 44 45 46 47 48 49 50

000
ASUS43 KDMX 281507
RWRIA

WEATHER ROUNDUP FOR IOWA
NATIONAL WEATHER SERVICE DES MOINES IA
900 AM CST WED JAN 28 2015

NOTE: "FAIR" INDICATES FEW OR NO CLOUDS BELOW 12,000 FEET WITH NO
SIGNIFICANT WEATHER AND/OR OBSTRUCTIONS TO VISIBILITY.

* - THESE STATIONS ARE NOT NWS STATIONS...THUS NOT UNDER NWS
QUALITY CONTROL.  THEY ALSO DO NOT REPORT WEATHER SUCH
AS PRECIPITATION OR FOG.

IAZ001>003-012>014-020>022-031>034-043>046-281600-
   NORTHWEST IOWA

CITY           SKY/WX    TMP DP  RH WIND       PRES   REMARKS
CARROLL *      CLOUDY    30  30 100 SE18      29.89F FOG     WCI  18
CHEROKEE *     CLOUDY    32  32 100 S9        29.87S FOG     WCI  24
DENISON *      SUNNY     32  32 100 SE14G22   29.84F WCI  22
LE MARS *      SUNNY     34  30  86 S12       29.84F WCI  25
ORANGE CITY *  SUNNY     34  28  80 SE10G16   29.82F FOG     WCI  26
SHELDON *      MOSUNNY   32  32 100 SE23G29   29.81F FOG     WCI  19
SIOUX CITY     MOSUNNY   34  30  85 SE13      29.83F WCI  25
SPENCER        CLOUDY    32  29  88 SE17      29.87F FOG     WCI  21
STORM LAKE *   CLOUDY    30  30 100 SE23G32   29.85F FOG     WCI  17
$$

IAZ055>058-069>071-079>083-090>094-281600-
   SOUTHWEST IOWA

CITY           SKY/WX    TMP DP  RH WIND       PRES   REMARKS
ATLANTIC *     SUNNY     32  30  93 VRB7      29.89F WCI  26
AUDUBON *      SUNNY     32  28  86 SE13      29.89F FOG     WCI  22
CLARINDA *     SUNNY     36  30  80 SE8G15    29.92F WCI  29
COUNCIL BLFS * SUNNY     34  32  93 SE15G22   29.83F WCI  24
CRESTON *      SUNNY     32  32 100 SE17      29.92F FOG     WCI  21
HARLAN  *      SUNNY     34  34 100 SE14      29.90F WCI  24
LAMONI         SUNNY     33  29  85 SE10      29.95F WCI  25
RED OAK *      SUNNY     34  30  86 SE10      29.89F WCI  26
SHENANDOAH *   SUNNY     36  32  87 SE13      29.89F WCI  27
$$

IAZ047>049-059>061-072>074-084-281600-
   CENTRAL IOWA

CITY           SKY/WX    TMP DP  RH WIND       PRES   REMARKS
AMES           CLOUDY    30  27  88 SE18G25   29.97F FOG     WCI  18
ANKENY *       CLOUDY    30  28  93 SE14G21   29.99F FOG     WCI  20
CHARITON *     SUNNY     30  28  93 SE14G23   29.98F FOG     WCI  20
DES MOINES     CLOUDY    31  27  85 SE13      29.98F FOG     WCI  21
GRINNELL*      MOSUNNY   30  28  93 E18       30.01F FOG     WCI  18
KNOXVILLE *    MOSUNNY   30  27  86 SE16G22   29.98F FOG     WCI  19
MARSHALLTOWN   CLOUDY    30  28  92 SE23      29.99F FOG     WCI  17
PELLA *        CLOUDY    30  28  93 SE17G23   30.03F FOG     WCI  18
PERRY *          N/A     32  30  93 SE15      29.94F FOG     WCI  22
$$

IAZ004>006-015-016-023>025-035-036-281600-
   NORTH CENTRAL IOWA

CITY           SKY/WX    TMP DP  RH WIND       PRES   REMARKS
ALGONA *       CLOUDY    30  30 100 SE17G26   29.92F FOG     WCI  18
CLARION *      FOG       30  30 100 SE26      29.93F VSB 3/4 WCI  16
ESTHERVILLE    CLOUDY    30  29  96 S22G28    29.89S FOG     WCI  17
FORT DODGE *   CLOUDY    30  27  86 SE8G17    29.93F WCI  23
MASON CITY     FOG       28  27  96 SE18G29   29.97F VSB 1/4 WCI  15
FOREST CITY *  FOG       30  28  93 SE20G25   29.94F VSB 1/2 WCI  18
IOWA FALLS *   CLOUDY    30  30 100 SE21      29.97F FOG     WCI  17
$$

IAZ007>011-017>019-026>030-037>042-050>054-066-281600-
   NORTHEAST IOWA

CITY           SKY/WX    TMP DP  RH WIND       PRES   REMARKS
CEDAR RAPIDS   MOSUNNY   29  25  85 SE15G24   30.09F WCI  18
CHARLES CITY * FOG       27  27 100 SE18G28   30.02F VSB 0   WCI  13
CLINTON *      MOSUNNY   27  23  86 SE16G22   30.20F WCI  14
DECORAH *      FOG       25  25 100 SE14G21   30.07S VSB 1/2 WCI  13
DUBUQUE        CLOUDY    27  24  89 S18       30.13F FOG     WCI  14
MONTICELLO *   MOSUNNY   28  27  93 SE15      30.13F WCI  17
OELWEIN *      FOG       28  28 100 SE22      30.07F VSB 0   WCI  15
WATERLOO       FOG       28  28 100 SE14      30.04F VSB 1   WCI  17
$$

IAZ064-065-067-068-078-281600-
   EAST CENTRAL IOWA

CITY           SKY/WX    TMP DP  RH WIND       PRES   REMARKS
DAVENPORT      MOSUNNY   26  18  71 SE17      30.17F WCI  13
IOWA CITY      MOSUNNY   28  24  85 SE16      30.14F FOG     WCI  16
MT. PLEASANT * MOSUNNY   30  27  86 SE16      30.12F WCI  19
MUSCATINE *    SUNNY     30  23  74 SE17      30.16S WCI  18
QUAD CITIES    MOSUNNY   26  20  77 SE13      30.18F WCI  15
$$

IAZ062-063-075>077-085>089-095>099-281600-
   SOUTHEAST IOWA

CITY           SKY/WX    TMP DP  RH WIND       PRES   REMARKS
BURLINGTON     MOSUNNY   30  25  81 SE13      30.14F WCI  20
FAIRFIELD *    SUNNY     30  27  86 SE17G24   30.08F WCI  18
FORT MADISON * SUNNY     30  27  86 SE12G18   30.14F WCI  21
KEOKUK *       SUNNY     32  27  80 SE10G17   30.12F WCI  24
OSKALOOSA *      N/A     30  27  86 SE18      30.04F FOG     WCI  18
CENTERVILLE *  SUNNY     32  32 100 SE18      30.02F WCI  20
OTTUMWA        SUNNY     31  27  85 SE16      30.04F WCI  20
WASHINGTON *   SUNNY     30  30 100 SE18      30.09F WCI  18
$$

ABBREVIATIONS USED IN REMARKS
   TC - TEMPERATURES IN CELSIUS
  WCI - WIND CHILL INDEX
   HX - HEAT INDEX
  VSB - VISIBILITY
$$



USA.gov is the U.S. government's official web portal to all federal, state and local government web resources and services.